Date String (YYYY-MM-DD hh:mm:ss) UTC,Instrument flags,Ambient pressure (hPa),Sample flow (lpm),Bypass flow (lpm),Sample temperature (°C),Ambient temperature (°C),ASC tube jacket temperature (°C),LED temperature (°C),Box temperature (°C),Sample RH (%),Span deviation,Mass concentration (μg/m³),Mass concentration (μg/m³),Mass concentration (μg/m³)
DateTimeUTC,F1_M11,P_M11,Q1_M11,Q2_M11,T1_M11,T2_M11,T3_M11,T4_M11,T5_M11,U1_M11,ZSPAN_M11,X0_M11,X2_M11,X1_M11
2023-02-11 16:00:00,,0826.1,5.04,0.00,22.2,20.8,00.0,30.9,24.0,09.3,0000.0,0004.94,0001.72,0001.29
2023-02-11 16:01:00,,0826.1,5.00,0.00,22.2,20.8,00.0,30.9,24.0,09.5,0000.0,0005.02,0001.74,0001.29
2023-02-11 16:02:00,,0826.1,4.98,0.00,22.2,20.9,00.0,30.9,24.1,09.7,0000.0,0005.18,0001.76,0001.28
2023-02-11 16:03:00,,0826.1,5.00,0.00,22.2,20.9,00.0,31.0,24.1,09.7,0000.0,0005.33,0001.79,0001.26
2023-02-11 16:04:00,,0826.1,5.01,0.00,22.2,20.9,00.0,31.0,24.1,09.0,0000.0,0005.17,0001.71,0001.24
2023-02-11 16:05:00,,0826.1,5.03,0.00,22.2,21.0,00.0,31.0,24.1,09.7,0000.0,0005.22,0001.71,0001.23
2023-02-11 16:06:00,,0826.1,4.98,0.00,22.2,21.0,00.0,31.0,24.1,10.3,0000.0,0005.30,0001.71,0001.22
2023-02-11 16:07:00,,0826.1,5.00,0.00,22.2,21.0,00.0,31.0,24.1,10.3,0000.0,0005.25,0001.67,0001.21
2023-02-11 16:08:00,,0826.1,5.00,0.00,22.3,21.0,00.0,31.0,24.1,10.4,0000.0,0005.05,0001.66,0001.21
2023-02-11 16:09:00,,0826.1,5.02,0.00,22.3,21.0,00.0,31.0,24.1,10.1,0000.0,0003.50,0001.69,0001.21
2023-02-11 16:10:00,,0826.1,5.02,0.00,22.3,21.1,00.0,31.0,24.2,10.1,0000.0,0003.14,0001.72,0001.22
2023-02-11 16:11:00,,0826.1,4.97,0.00,22.3,21.1,00.0,31.0,24.2,09.9,0000.0,0003.10,0001.73,0001.22
2023-02-11 16:12:00,,0826.0,4.98,0.00,22.3,21.1,00.0,31.0,24.2,09.3,0000.0,0003.12,0001.72,0001.21
2023-02-11 16:13:00,,0826.0,4.99,0.00,22.3,21.1,00.0,31.0,24.2,09.1,0000.0,0003.56,0001.66,0001.20
2023-02-11 16:14:00,,0826.0,5.02,0.00,22.3,21.2,00.0,31.0,24.2,08.9,0000.0,0003.34,0001.58,0001.19
2023-02-11 16:15:00,,0826.0,4.98,0.00,22.4,21.2,00.0,31.1,24.2,09.3,0000.0,0003.18,0001.54,0001.18
2023-02-11 16:16:00,,0826.0,5.03,0.00,22.4,21.3,00.0,31.1,24.3,09.3,0000.0,0003.19,0001.55,0001.18
2023-02-11 16:17:00,,0826.0,4.96,0.00,22.4,21.3,00.0,31.1,24.3,09.5,0000.0,0003.05,0001.53,0001.17
2023-02-11 16:18:00,,0826.0,5.04,0.00,22.4,21.3,00.0,31.1,24.3,09.6,0000.0,0003.03,0001.52,0001.17
2023-02-11 16:19:00,,0826.0,5.02,0.00,22.4,21.3,00.0,31.1,24.3,09.7,0000.0,0003.41,0001.49,0001.16
2023-02-11 16:20:00,,0826.0,5.02,0.00,22.4,21.3,00.0,31.1,24.3,09.9,0000.0,0004.17,0001.49,0001.16
2023-02-11 16:21:00,,0826.0,5.01,0.00,22.4,21.3,00.0,31.2,24.3,09.9,0000.0,0005.00,0001.51,0001.17
2023-02-11 16:22:00,,0826.0,4.95,0.00,22.5,21.3,00.0,31.2,24.3,09.7,0000.0,0005.38,0001.54,0001.17
2023-02-11 16:23:00,,0826.0,4.99,0.00,22.5,21.3,00.0,31.2,24.4,09.4,0000.0,0005.40,0001.54,0001.16
2023-02-11 16:24:00,,0826.1,4.99,0.00,22.5,21.4,00.0,31.2,24.4,09.7,0000.0,0004.92,0001.59,0001.17
2023-02-11 16:25:00,,0826.1,5.01,0.00,22.5,21.4,00.0,31.2,24.4,09.3,0000.0,0005.02,0001.62,0001.18
2023-02-11 16:26:00,,0826.1,5.01,0.00,22.5,21.4,00.0,31.2,24.4,09.6,0000.0,0005.17,0001.65,0001.20
2023-02-11 16:27:00,,0826.0,5.02,0.00,22.6,21.4,00.0,31.2,24.4,09.5,0000.0,0005.17,0001.64,0001.20
2023-02-11 16:28:00,,0826.1,4.97,0.00,22.6,21.4,00.0,31.2,24.5,09.7,0000.0,0005.17,0001.63,0001.20
2023-02-11 16:29:00,,0826.0,4.99,0.00,22.6,21.5,00.0,31.3,24.5,09.6,0000.0,0005.22,0001.61,0001.19
2023-02-11 16:30:00,,0826.1,5.08,0.00,22.6,21.5,00.0,31.3,24.5,09.8,0000.0,0005.22,0001.61,0001.19
2023-02-11 16:31:00,,0826.0,4.99,0.00,22.6,21.5,00.0,31.3,24.5,09.5,0000.0,0005.18,0001.65,0001.19
2023-02-11 16:32:00,,0826.0,5.00,0.00,22.6,21.5,00.0,31.3,24.5,09.4,0000.0,0004.04,0001.62,0001.18
2023-02-11 16:33:00,,0826.0,5.00,0.00,22.6,21.5,00.0,31.3,24.6,09.7,0000.0,0003.48,0001.55,0001.16
2023-02-11 16:34:00,,0826.0,4.99,0.00,22.7,21.6,00.0,31.3,24.6,09.6,0000.0,0003.24,0001.50,0001.15
2023-02-11 16:35:00,,0826.0,5.04,0.00,22.7,21.6,00.0,31.3,24.6,09.6,0000.0,0003.16,0001.47,0001.15
2023-02-11 16:36:00,,0826.0,5.05,0.00,22.7,21.6,00.0,31.4,24.6,09.2,0000.0,0003.16,0001.46,0001.15
2023-02-11 16:37:00,,0825.9,5.01,0.00,22.7,21.7,00.0,31.4,24.6,08.9,0000.0,0003.01,0001.42,0001.14
2023-02-11 16:38:00,,0826.0,4.98,0.00,22.7,21.7,00.0,31.4,24.7,08.5,0000.0,0002.76,0001.38,0001.12
2023-02-11 16:39:00,,0826.0,5.00,0.00,22.8,21.7,00.0,31.4,24.7,08.5,0000.0,0002.68,0001.35,0001.11
2023-02-11 16:40:00,,0825.9,4.93,0.00,22.8,21.7,00.0,31.4,24.7,08.5,0000.0,0002.73,0001.36,0001.10
2023-02-11 16:41:00,,0825.9,5.00,0.00,22.8,21.7,00.0,31.5,24.7,08.6,0000.0,0002.79,0001.36,0001.08
2023-02-11 16:42:00,,0825.9,5.01,0.00,22.8,21.7,00.0,31.5,24.7,08.9,0000.0,0002.77,0001.33,0001.07
2023-02-11 16:43:00,,0825.9,4.93,0.00,22.8,21.8,00.0,31.5,24.7,09.9,0000.0,0002.93,0001.37,0001.08
2023-02-11 16:44:00,,0825.9,4.97,0.00,22.8,21.8,00.0,31.5,24.7,10.9,0000.0,0003.16,0001.47,0001.12
2023-02-11 16:45:00,,0825.9,4.99,0.00,22.9,21.8,00.0,31.5,24.8,10.7,0000.0,0002.79,0001.53,0001.16
2023-02-11 16:46:00,,0825.9,5.02,0.00,22.9,21.8,00.0,31.5,24.8,10.4,0000.0,0002.84,0001.57,0001.19
2023-02-11 16:47:00,,0825.9,5.02,0.00,22.9,21.9,00.0,31.6,24.8,10.6,0000.0,0002.81,0001.60,0001.21
2023-02-11 16:48:00,,0825.9,5.05,0.00,22.9,21.9,00.0,31.6,24.8,11.2,0000.0,0003.06,0001.69,0001.24
2023-02-11 16:49:00,,0825.9,5.06,0.00,22.9,21.9,00.0,31.6,24.8,11.5,0000.0,0003.37,0001.84,0001.31
2023-02-11 16:50:00,,0825.8,4.97,0.00,22.9,21.9,00.0,31.6,24.8,11.9,0000.0,0003.86,0002.02,0001.38
2023-02-11 16:51:00,,0825.8,5.03,0.00,23.0,21.9,00.0,31.6,24.9,12.8,0000.0,0004.09,0002.16,0001.48
2023-02-11 16:52:00,,0825.9,4.99,0.00,23.0,22.0,00.0,31.6,24.9,12.7,0000.0,0004.14,0002.28,0001.60
2023-02-11 16:53:00,,0825.9,4.96,0.00,23.0,21.9,00.0,31.7,24.9,12.1,0000.0,0004.36,0002.40,0001.69
2023-02-11 16:54:00,,0825.8,5.00,0.00,23.0,21.9,00.0,31.7,24.9,12.8,0000.0,0004.57,0002.53,0001.80
2023-02-11 16:55:00,,0825.9,4.99,0.00,23.0,22.0,00.0,31.7,24.9,13.2,0000.0,0005.50,0002.61,0001.89
2023-02-11 16:56:00,,0825.8,5.02,0.00,23.1,22.0,00.0,31.7,25.0,13.2,0000.0,0006.21,0002.70,0002.01
2023-02-11 16:57:00,,0825.8,5.05,0.00,23.1,22.0,00.0,31.7,25.0,13.2,0000.0,0006.32,0002.82,0002.15
2023-02-11 16:58:00,,0825.8,4.95,0.00,23.1,22.0,00.0,31.7,25.0,13.0,0000.0,0006.57,0002.98,0002.31
2023-02-11 16:59:00,,0825.8,4.99,0.00,23.1,22.0,00.0,31.8,25.0,13.2,0000.0,0006.74,0003.12,0002.46
